FW7886 Weather Reports


Display with metric or nautical units.
time (UTC)temp
F
wind
direction
speed
MPH
gust
MPH
rain 1hr
in
rain 24hr
in
rain mn
in
humidity
%
barometer
mb
20260508100244 66 148 0.0 2.0 0.00 0.03 0.00 95 1013.5
20260508095738 66 142 0.0 2.0 0.00 0.03 0.00 94 1013.5
20260508095232 67 154 0.0 2.0 0.00 0.03 0.00 94 1013.3
20260508094726 67 156 0.0 2.0 0.00 0.03 0.00 93 1013.4
20260508094220 67 147 0.0 1.0 0.00 0.03 0.00 93 1013.4
20260508093715 67 153 0.0 1.0 0.00 0.03 0.00 92 1013.3
20260508093429 67 154 0.0 2.0 0.00 0.03 0.00 92 1013.3
20260508092702 67 154 0.0 2.0 0.00 0.03 0.00 92 1013.3
20260508092156 67 145 0.0 0.0 0.00 0.03 0.00 92 1013.2
20260508091649 67 145 0.0 5.0 0.00 0.03 0.00 92 1013.0
20260508091144 67 145 1.0 5.0 0.00 0.03 0.00 92 1012.8
20260508090638 67 155 1.0 4.0 0.00 0.03 0.00 92 1012.4
20260508090132 67 129 0.0 3.0 0.00 0.03 0.00 92 1012.3
20260508085626 67 168 0.0 3.0 0.00 0.03 0.00 92 1012.6
20260508085602 67 146 0.0 2.0 0.00 0.03 0.00 91 1012.6
20260508085210 67 170 0.0 2.0 0.00 0.03 0.00 91 1012.5
20260508084108 67 167 0.0 2.0 0.00 0.04 0.00 90 1012.6
20260508083820 67 162 0.0 2.0 0.00 0.04 0.00 90 1012.7
20260508083056 67 163 0.0 3.0 0.00 0.05 0.00 90 1012.5
20260508082550 67 166 1.0 3.0 0.00 0.06 0.00 90 1012.6
20260508082044 67 170 0.0 3.0 0.00 0.06 0.00 90 1012.7
20260508081539 67 165 0.0 3.0 0.00 0.06 0.00 90 1012.7
20260508081038 67 206 1.0 3.0 0.00 0.06 0.00 90 1012.9
20260508080539 67 167 0.0 3.0 0.00 0.06 0.00 90 1012.7
20260508080303 67 169 0.0 3.0 0.00 0.06 0.00 90 1012.9
20260508075541 67 145 0.0 2.0 0.00 0.06 0.00 90 1013.0
20260508075041 67 140 0.0 1.0 0.00 0.06 0.00 90 1013.1
20260508074802 67 146 0.0 3.0 0.00 0.06 0.00 90 1013.1
20260508074038 67 149 0.0 3.0 0.00 0.06 0.00 89 1013.3
20260508073537 67 171 0.0 2.0 0.00 0.06 0.00 89 1013.4
20260508073038 67 148 0.0 2.0 0.00 0.06 0.00 90 1013.4
20260508072806 67 149 1.0 3.0 0.00 0.06 0.00 89 1013.3
20260508072036 67 146 1.0 3.0 0.00 0.06 0.00 89 1013.4
20260508071537 67 135 0.0 2.0 0.00 0.06 0.00 90 1013.4
20260508071239 67 141 0.0 1.0 0.00 0.06 0.00 90 1013.2
20260508071128 67 157 0.0 2.0 0.00 0.06 0.00 90 1013.2
20260508070300 67 140 0.0 3.0 0.00 0.06 0.00 90 1013.2
20260508065752 67 143 0.0 3.0 0.00 0.06 0.00 89 1013.3
20260508065036 67 142 1.0 2.0 0.00 0.06 0.00 90 1013.3
20260508064535 67 152 1.0 5.0 0.00 0.06 0.00 90 1013.2
20260508064035 67 164 0.0 5.0 0.00 0.06 0.00 90 1013.5
20260508063534 67 154 0.0 2.0 0.00 0.06 0.00 90 1013.5
20260508063035 67 154 0.0 4.0 0.00 0.06 0.00 90 1013.6
20260508062536 67 154 0.0 4.0 0.00 0.06 0.00 90 1013.7
20260508062034 67 142 0.0 2.0 0.00 0.06 0.00 90 1013.8
20260508061535 67 142 0.0 3.0 0.00 0.06 0.00 90 1013.9
20260508061035 67 139 0.0 3.0 0.00 0.06 0.00 91 1014.1
20260508060535 67 144 0.0 2.0 0.00 0.06 0.00 91 1014.1
20260508060034 67 148 0.0 2.0 0.00 0.06 0.00 91 1014.0
20260508055536 67 149 0.0 2.0 0.00 0.06 0.00 91 1014.0
20260508055035 67 141 0.0 2.0 0.00 0.06 0.00 91 1013.9
20260508054755 67 144 0.0 2.0 0.00 0.06 0.00 91 1013.9
20260508054035 67 153 0.0 2.0 0.00 0.06 0.00 91 1014.0
20260508053529 67 154 0.0 1.0 0.00 0.06 0.00 92 1014.0
20260508053022 67 161 0.0 1.0 0.00 0.06 0.00 91 1014.0
20260508052515 67 153 0.0 2.0 0.00 0.06 0.00 92 1013.8
20260508052009 67 141 0.0 2.0 0.00 0.06 0.00 91 1013.8
20260508051503 67 145 0.0 2.0 0.00 0.06 0.00 91 1013.9
20260508050958 67 151 0.0 3.0 0.00 0.06 0.00 92 1014.0
20260508050451 67 156 0.0 3.0 0.00 0.06 0.00 92 1014.1
20260508045946 67 146 0.0 3.0 0.00 0.06 0.06 92 1013.7
20260508045438 67 139 1.0 4.0 0.00 0.06 0.06 92 1013.8
20260508045152 67 170 1.0 4.0 0.00 0.06 0.06 91 1013.7
20260508044426 67 172 0.0 2.0 0.00 0.06 0.06 92 1013.7
20260508043920 67 146 0.0 2.0 0.00 0.06 0.06 91 1013.8
20260508043637 67 145 0.0 3.0 0.00 0.06 0.06 92 1013.9
20260508042908 67 158 0.0 3.0 0.00 0.06 0.06 92 1014.1
20260508042402 67 156 0.0 3.0 0.00 0.06 0.06 92 1014.1
20260508041856 67 150 0.0 3.0 0.00 0.06 0.06 92 1014.2
20260508041350 67 184 0.0 2.0 0.00 0.06 0.06 92 1014.5
20260508041109 67 151 0.0 2.0 0.00 0.06 0.06 92 1014.5
20260508040338 67 150 0.0 2.0 0.00 0.06 0.06 92 1014.4
20260508035832 67 156 0.0 1.0 0.00 0.06 0.06 92 1014.5
20260508035326 67 165 0.0 2.0 0.00 0.06 0.06 91 1014.4
20260508034820 67 161 0.0 2.0 0.00 0.06 0.06 91 1014.5
20260508034315 67 135 0.0 2.0 0.00 0.06 0.06 91 1014.5
20260508033814 67 172 0.0 3.0 0.00 0.06 0.06 91 1014.3
20260508033313 67 147 0.0 3.0 0.00 0.06 0.06 91 1014.4
20260508032813 67 159 0.0 3.0 0.00 0.06 0.06 91 1014.4
20260508032313 67 139 1.0 3.0 0.00 0.06 0.06 91 1014.4
20260508031810 68 146 0.0 3.0 0.00 0.06 0.06 91 1014.4
20260508031312 68 155 0.0 3.0 0.00 0.06 0.06 91 1014.4
20260508030809 68 151 0.0 3.0 0.00 0.06 0.06 90 1014.5
20260508030308 68 147 1.0 4.0 0.00 0.06 0.06 90 1014.4
20260508025809 68 147 0.0 4.0 0.00 0.06 0.06 90 1014.5
20260508025307 68 127 0.0 2.0 0.00 0.06 0.06 90 1014.4
20260508025251 68 149 0.0 2.0 0.00 0.06 0.06 90 1014.7
20260508024308 68 136 0.0 2.0 0.00 0.06 0.06 90 1014.7
20260508023807 68 146 0.0 2.0 0.00 0.06 0.06 90 1014.7
20260508023306 69 148 0.0 2.0 0.00 0.06 0.06 90 1014.5
20260508022807 69 140 0.0 2.0 0.00 0.06 0.06 89 1014.2
20260508022307 69 161 0.0 3.0 0.00 0.06 0.06 89 1014.3
20260508021802 69 151 0.0 3.0 0.00 0.06 0.06 89 1014.2
20260508021303 69 163 1.0 5.0 0.00 0.06 0.06 89 1014.2
20260508021027 69 155 1.0 5.0 0.00 0.06 0.06 89 1014.3
20260508020303 69 162 0.0 3.0 0.00 0.06 0.06 89 1014.3
20260508015803 69 146 1.0 5.0 0.00 0.06 0.06 89 1014.0
20260508015305 69 148 1.0 5.0 0.00 0.06 0.06 88 1014.0
20260508014803 69 150 0.0 4.0 0.00 0.06 0.06 88 1013.9
20260508014304 69 144 0.0 2.0 0.00 0.06 0.06 88 1013.8
20260508013803 70 136 1.0 3.0 0.00 0.06 0.06 88 1013.5
20260508013304 70 148 1.0 3.0 0.00 0.06 0.06 87 1013.5
20260508012804 70 138 1.0 3.0 0.00 0.06 0.06 87 1013.6
20260508012307 70 149 1.0 3.0 0.00 0.06 0.06 87 1013.6
20260508012034 71 142 1.0 4.0 0.00 0.06 0.06 86 1013.7
20260508011304 71 142 1.0 6.0 0.00 0.06 0.06 86 1013.7
20260508010802 71 139 1.0 6.0 0.00 0.06 0.06 86 1013.8
20260508010735 71 138 1.0 5.0 0.00 0.06 0.06 86 1013.6
20260508010358 71 141 1.0 5.0 0.00 0.06 0.06 86 1013.6
20260508005255 72 141 1.0 4.0 0.00 0.06 0.06 85 1013.4
20260508005010 72 137 1.0 3.0 0.00 0.06 0.06 85 1013.4
20260508004243 72 122 1.0 4.0 0.00 0.06 0.06 85 1013.3
20260508003737 73 142 0.0 4.0 0.00 0.06 0.06 85 1013.2
20260508003231 73 140 0.0 2.0 0.00 0.06 0.06 84 1013.2
20260508002725 73 149 1.0 4.0 0.00 0.06 0.06 84 1013.2
20260508002218 74 42 1.0 4.0 0.00 0.06 0.06 83 1013.1
20260508001713 74 42 0.0 3.0 0.00 0.06 0.06 83 1013.2
20260508001207 74 42 1.0 3.0 0.00 0.06 0.06 83 1013.0
20260508000929 75 42 1.0 3.0 0.00 0.06 0.06 82 1013.2
20260508000154 76 42 1.0 3.0 0.00 0.06 0.06 81 1013.0
20260507235649 76 42 1.0 2.0 0.00 0.06 0.06 81 1013.1
20260507235406 76 42 1.0 3.0 0.00 0.06 0.06 80 1013.1
20260507234637 77 42 1.0 3.0 0.00 0.06 0.06 79 1013.0
20260507234131 77 42 1.0 3.0 0.00 0.06 0.06 79 1013.1
20260507233625 77 42 1.0 3.0 0.00 0.06 0.06 80 1013.1
20260507233119 78 42 1.0 3.0 0.00 0.06 0.06 78 1013.0
20260507232613 78 42 1.0 3.0 0.00 0.06 0.06 78 1013.0
20260507232107 78 42 1.0 4.0 0.00 0.06 0.06 77 1013.2
20260507231601 79 42 1.0 4.0 0.00 0.06 0.06 77 1013.1
20260507231055 79 42 1.0 4.0 0.00 0.06 0.06 77 1013.0
20260507230549 79 42 1.0 4.0 0.00 0.06 0.06 77 1013.1
20260507230043 79 42 1.0 4.0 0.00 0.06 0.06 77 1013.2
20260507225537 79 42 1.0 5.0 0.00 0.06 0.06 76 1013.1
20260507225031 80 42 1.0 6.0 0.00 0.06 0.06 76 1013.0
20260507224525 80 42 1.0 6.0 0.00 0.06 0.06 74 1012.9
20260507224018 81 42 1.0 7.0 0.00 0.06 0.06 75 1013.0
20260507223513 81 42 1.0 7.0 0.00 0.06 0.06 74 1013.0
20260507223007 81 42 1.0 7.0 0.00 0.06 0.06 74 1013.1
20260507222501 81 42 1.0 7.0 0.00 0.06 0.06 75 1013.0
20260507221954 81 42 1.0 6.0 0.00 0.06 0.06 74 1013.0
20260507221449 82 42 1.0 6.0 0.00 0.06 0.06 73 1013.1
20260507220943 81 42 1.0 5.0 0.00 0.06 0.06 74 1013.0
20260507220436 81 42 0.0 5.0 0.00 0.06 0.06 74 1013.1
20260507215931 81 42 1.0 3.0 0.00 0.06 0.06 75 1013.0
20260507215425 81 42 1.0 6.0 0.00 0.06 0.06 76 1013.0
20260507215129 82 42 1.0 6.0 0.00 0.06 0.06 74 1013.0
20260507215012 81 42 1.0 6.0 0.00 0.06 0.06 73 1012.9
20260507213907 82 42 1.0 6.0 0.00 0.06 0.06 73 1013.0
20260507213401 82 42 1.0 5.0 0.00 0.06 0.06 75 1013.0
20260507212855 82 42 1.0 5.0 0.00 0.06 0.06 74 1012.9
20260507212349 81 42 1.0 5.0 0.00 0.06 0.06 76 1012.8
20260507211843 81 42 2.0 5.0 0.00 0.06 0.06 75 1012.9
20260507211337 81 42 1.0 4.0 0.00 0.06 0.06 75 1012.9
20260507210831 81 42 1.0 6.0 0.00 0.06 0.06 77 1012.9
20260507210325 80 42 2.0 6.0 0.00 0.06 0.06 76 1012.8
20260507205818 81 42 2.0 5.0 0.00 0.06 0.06 75 1012.9
20260507205313 81 42 1.0 5.0 0.00 0.06 0.06 76 1012.9
20260507204807 80 42 1.0 4.0 0.00 0.06 0.06 77 1012.9
20260507204301 81 42 1.0 4.0 0.00 0.06 0.06 76 1013.0
20260507203754 81 42 1.0 5.0 0.00 0.06 0.06 76 1012.9
20260507203744 81 42 1.0 5.0 0.00 0.06 0.06 77 1013.0
20260507202743 81 42 1.0 5.0 0.00 0.06 0.06 75 1013.0
20260507202236 82 42 1.0 5.0 0.00 0.06 0.06 75 1013.1
20260507201730 81 42 1.0 5.0 0.00 0.06 0.06 79 1013.0
20260507201225 81 42 2.0 5.0 0.00 0.06 0.06 77 1013.0
20260507200719 81 42 2.0 5.0 0.00 0.06 0.06 75 1013.1
20260507200213 81 42 1.0 5.0 0.00 0.06 0.06 76 1013.1
20260507195707 81 42 1.0 4.0 0.00 0.06 0.06 75 1013.1
20260507195201 81 42 1.0 4.0 0.00 0.06 0.06 75 1013.1
20260507194654 81 42 1.0 4.0 0.00 0.06 0.06 74 1013.3
20260507194416 81 42 1.0 5.0 0.00 0.06 0.06 75 1013.2
20260507193643 81 42 1.0 5.0 0.00 0.06 0.06 76 1013.3
20260507193623 81 42 2.0 4.0 0.00 0.06 0.06 77 1013.3
20260507192631 81 42 1.0 4.0 0.00 0.06 0.06 75 1013.1
20260507192125 81 42 1.0 6.0 0.00 0.06 0.06 75 1013.4
20260507191619 81 42 1.0 6.0 0.00 0.06 0.06 76 1013.5
20260507191341 81 42 1.0 4.0 0.00 0.06 0.06 78 1013.5
20260507190836 80 42 1.0 5.0 0.00 0.06 0.06 76 1013.6
20260507185555 81 42 1.0 5.0 0.00 0.06 0.06 77 1013.6
20260507185049 80 42 1.0 5.0 0.00 0.06 0.06 76 1013.6
20260507184543 80 42 1.0 4.0 0.00 0.06 0.06 77 1013.8
20260507184037 80 42 1.0 5.0 0.00 0.06 0.06 78 1013.7
20260507183531 79 42 1.0 5.0 0.00 0.06 0.06 79 1013.8
20260507183025 79 42 1.0 4.0 0.00 0.06 0.06 78 1013.9
20260507182525 78 42 1.0 6.0 0.00 0.06 0.06 79 1013.8
20260507182025 78 42 1.0 6.0 0.00 0.06 0.06 79 1013.9
20260507181528 78 42 1.0 6.0 0.00 0.06 0.06 79 1013.9
20260507181021 78 42 1.0 6.0 0.00 0.06 0.06 78 1013.9
20260507180521 78 42 1.0 4.0 0.00 0.06 0.06 79 1013.7
20260507180021 78 42 1.0 4.0 0.00 0.06 0.06 80 1013.8
20260507175520 78 42 1.0 4.0 0.00 0.06 0.06 79 1014.0
20260507175019 78 42 1.0 3.0 0.00 0.06 0.06 79 1014.0
20260507174515 77 42 1.0 4.0 0.00 0.06 0.06 80 1013.9
20260507174014 77 42 1.0 4.0 0.00 0.06 0.06 79 1013.8
20260507173515 77 42 1.0 5.0 0.00 0.06 0.06 80 1014.1
20260507173014 77 42 1.0 5.0 0.00 0.06 0.06 81 1014.2
20260507172514 77 42 1.0 5.0 0.00 0.06 0.06 80 1014.2
20260507172015 77 42 1.0 5.0 0.00 0.06 0.06 80 1014.3
20260507171513 77 42 1.0 6.0 0.00 0.06 0.06 80 1014.3
20260507171010 76 42 1.0 6.0 0.00 0.06 0.06 82 1014.2
20260507170738 75 42 1.0 4.0 0.00 0.06 0.06 84 1014.1
20260507170013 74 42 1.0 4.0 0.00 0.06 0.06 82 1014.1
20260507165730 75 42 1.0 5.0 0.00 0.06 0.06 83 1014.2
20260507165008 74 42 2.0 7.0 0.00 0.06 0.06 84 1014.1
20260507164508 74 42 1.0 7.0 0.00 0.06 0.06 83 1014.0
20260507164006 73 42 1.0 4.0 0.00 0.06 0.06 84 1014.1
20260507163507 73 42 1.0 6.0 0.00 0.06 0.06 84 1014.3
20260507163007 72 42 1.0 6.0 0.00 0.06 0.06 87 1014.4
20260507162727 72 42 1.0 5.0 0.00 0.06 0.06 84 1014.4
20260507162233 72 42 2.0 4.0 0.00 0.06 0.06 86 1014.5
20260507161507 71 42 1.0 4.0 0.00 0.06 0.06 86 1014.3
20260507161006 71 42 2.0 5.0 0.00 0.06 0.06 88 1014.5
20260507160507 71 42 2.0 5.0 0.00 0.06 0.06 86 1014.5
20260507160005 71 42 1.0 6.0 0.00 0.06 0.06 87 1014.6
20260507155505 71 42 1.0 7.0 0.00 0.06 0.06 87 1014.7
20260507155003 71 42 1.0 7.0 0.00 0.06 0.06 87 1014.7
20260507154505 71 42 1.0 4.0 0.00 0.06 0.06 88 1015.0
20260507154004 71 42 1.0 3.0 0.00 0.06 0.06 88 1014.8
20260507153504 70 42 1.0 3.0 0.00 0.06 0.06 89 1014.7
20260507153005 70 42 1.0 3.0 0.00 0.06 0.06 89 1014.8
20260507152721 70 42 1.0 4.0 0.00 0.06 0.06 89 1014.7
20260507152217 70 42 1.0 4.0 0.00 0.06 0.06 90 1014.7
20260507151445 69 42 1.0 4.0 0.00 0.06 0.06 90 1014.7
20260507150940 69 42 1.0 3.0 0.00 0.06 0.06 91 1014.6
20260507150434 68 42 1.0 4.0 0.00 0.06 0.06 92 1014.5
20260507145927 68 42 1.0 4.0 0.00 0.06 0.06 93 1014.4
20260507145422 67 42 1.0 3.0 0.00 0.06 0.06 93 1014.5
20260507144916 67 42 0.0 3.0 0.00 0.06 0.06 93 1014.5
20260507144409 67 42 1.0 4.0 0.00 0.06 0.06 95 1014.5
20260507143904 66 42 1.0 4.0 0.00 0.06 0.06 95 1014.4
20260507143358 66 42 1.0 4.0 0.00 0.06 0.06 96 1014.5
20260507142852 65 42 1.0 4.0 0.00 0.06 0.06 96 1014.3
20260507142345 65 42 0.0 3.0 0.00 0.06 0.06 97 1014.3
20260507141840 65 42 0.0 2.0 0.00 0.06 0.06 98 1014.4
20260507141334 65 42 0.0 3.0 0.00 0.06 0.06 98 1014.3
20260507140828 64 42 1.0 3.0 0.00 0.06 0.06 98 1014.4
20260507140321 64 42 0.0 2.0 0.00 0.06 0.06 98 1014.4
20260507140044 64 42 0.0 4.0 0.00 0.06 0.06 98 1014.5
20260507135753 64 42 1.0 7.0 0.00 0.06 0.06 98 1014.8
20260507134802 64 42 2.0 7.0 0.00 0.06 0.06 98 1014.8
20260507134256 64 42 1.0 5.0 0.00 0.06 0.06 98 1014.7
20260507133750 64 42 1.0 5.0 0.00 0.06 0.06 98 1014.6
20260507133244 64 42 1.0 5.0 0.00 0.06 0.06 98 1014.5
20260507132737 64 42 1.0 4.0 0.00 0.06 0.06 99 1014.3
20260507132232 64 42 1.0 4.0 0.00 0.06 0.06 99 1014.2
20260507131944 64 42 0.0 3.0 0.00 0.06 0.06 99 1014.0
20260507131220 64 42 1.0 5.0 0.00 0.06 0.06 99 1013.9
20260507130713 64 42 1.0 5.0 0.00 0.06 0.06 99 1014.0
20260507130657 64 42 1.0 4.0 0.00 0.06 0.06 99 1014.0
20260507125702 64 42 1.0 3.0 0.00 0.06 0.06 99 1014.1
20260507125156 64 42 1.0 4.0 0.00 0.06 0.06 99 1014.0
20260507124649 64 42 1.0 4.0 0.00 0.06 0.06 99 1013.9
20260507124144 64 42 0.0 4.0 0.00 0.06 0.06 99 1014.0
20260507123638 64 42 0.0 3.0 0.00 0.06 0.06 99 1013.9
20260507123132 64 42 0.0 3.0 0.00 0.06 0.06 99 1013.9
20260507122626 64 42 1.0 4.0 0.00 0.06 0.06 99 1013.7
20260507122120 64 42 1.0 5.0 0.00 0.06 0.06 99 1013.7
20260507121614 64 42 1.0 5.0 0.00 0.06 0.06 99 1013.7
20260507121108 64 42 1.0 7.0 0.00 0.06 0.06 99 1013.6
20260507120602 65 42 1.0 7.0 0.00 0.06 0.06 99 1013.5
20260507120056 65 42 2.0 6.0 0.00 0.06 0.06 99 1013.3
20260507115550 65 42 1.0 6.0 0.00 0.06 0.06 99 1013.2
20260507115044 65 42 1.0 3.0 0.01 0.06 0.06 99 1013.0
20260507114538 65 42 0.0 4.0 0.01 0.06 0.06 99 1012.7
20260507114032 65 42 1.0 4.0 0.02 0.06 0.06 99 1012.7
20260507113526 65 42 1.0 5.0 0.02 0.06 0.06 99 1012.7
20260507113020 66 42 1.0 5.0 0.02 0.06 0.06 99 1012.7
20260507112514 66 42 0.0 3.0 0.02 0.06 0.06 99 1012.4
20260507112008 66 42 0.0 2.0 0.03 0.06 0.06 99 1012.4
20260507111503 66 42 1.0 3.0 0.03 0.06 0.06 99 1012.2
20260507110956 66 42 1.0 5.0 0.03 0.06 0.06 99 1012.3
20260507110709 66 42 2.0 5.0 0.03 0.06 0.06 99 1012.5
20260507110202 66 42 2.0 7.0 0.03 0.06 0.06 99 1012.3
20260507105700 66 42 2.0 7.0 0.03 0.06 0.06 99 1012.1
20260507104932 67 42 1.0 5.0 0.02 0.05 0.05 99 1012.3
20260507104426 67 42 1.0 5.0 0.02 0.05 0.05 99 1012.3
20260507103920 67 42 1.0 5.0 0.01 0.04 0.04 99 1012.0
20260507103414 67 42 2.0 8.0 0.01 0.04 0.04 99 1012.0
20260507102907 67 42 2.0 8.0 0.01 0.04 0.04 98 1011.7
20260507102401 68 42 1.0 7.0 0.01 0.04 0.04 98 1011.5
20260507101856 68 42 1.0 7.0 0.00 0.03 0.03 99 1011.5
20260507101350 69 42 1.0 7.0 0.00 0.03 0.03 99 1011.7
20260507100844 69 42 1.0 3.0 0.00 0.03 0.03 99 1011.1